Content
SEND FEEDBACK

Daily
Averages
Monthly
Summary
United States of America

HALLAM, NEBRASKA


Home > North America > United States > Nebraska
Elevation: 1440 feet     Latitude: 40 34N     Longitude: 096 47W

WEATHER
 
SELECT A DAY
Number of Records: 428,158;   Date Range: 7/27/95 - 7/7/14
 
SHARE

PRINT THIS DATA

[ ← Previous Day ]
WEATHER ALMANAC - FEBRUARY 13, 2013
[ Next Day → ]
[ °C ]   °F
Weather ElementAverageHighLow
Temperature38.3 °F55 °F (3:55 pm)24.8 °F (5:55 am)
Dewpoint22.2 °F27 °F (10:15 am)17.4 °F (3:35 pm)
Humidity57.2 %81 % (7:35 am)23 % (3:15 pm)
Barometer29.84 in29.93 in (12:35 am)29.76 in (4:15 pm)
Wind Speed7.5 mph15 mph (2:35 pm)
Wind Gust20.7 mph (3:15 pm)
Weather ElementAverage
Visibility10 mi
Wind DirectionWSW (252.4 °)

Weather ElementTotal
Precipitation---
Heating Degree Days25.1 (Base 65)
Averaged from 71 records on February 13, 2013
WEATHER CONDITIONS BREAKOUT
WIND DIRECTION BREAKOUT
WEATHER BY HOUR - FEBRUARY 13, 2013
[ °C ]   °F
Local TimeTemperatureDewpointHumidityBarometerVisibilityWind DirectionWind SpeedGust SpeedPrecipitationEventsConditions
12:35 AM27.5 °F20.5 °F75 %29.93 in10.0 miWest (260°)3.5 mphClear
12:55 AM27.0 °F20.3 °F76 %29.93 in10.0 miCalmClear
1:15 AM27.0 °F20.5 °F77 %29.92 in10.0 miCalmClear
1:35 AM27.3 °F20.8 °F77 %29.92 in10.0 miCalmClear
1:55 AM25.9 °F20.1 °F79 %29.92 in10.0 miWest (270°)3.5 mphClear
2:15 AM26.1 °F20.7 °F80 %29.92 in10.0 miCalmClear
2:35 AM26.8 °F20.5 °F77 %29.92 in10.0 miWest (270°)5.8 mphClear
2:55 AM27.9 °F21.2 °F76 %29.92 in10.0 miWest (280°)4.6 mphClear
3:15 AM27.9 °F21.0 °F75 %29.91 in10.0 miWest (270°)5.8 mphClear
3:35 AM27.5 °F21.0 °F77 %29.90 in10.0 miWest (280°)4.6 mphClear
3:55 AM27.5 °F21.2 °F77 %29.90 in10.0 miWest (280°)5.8 mphClear
4:15 AM27.1 °F21.0 °F78 %29.89 in10.0 miWest (280°)4.6 mphClear
4:35 AM27.3 °F20.5 °F75 %29.89 in10.0 miWest (260°)4.6 mphClear
4:55 AM26.4 °F20.5 °F78 %29.89 in10.0 miWest (280°)6.9 mphClear
5:15 AM26.6 °F20.7 °F78 %29.89 in10.0 miWest (270°)6.9 mphClear
5:35 AM27.1 °F20.5 °F76 %29.88 in10.0 miWest (260°)6.9 mphClear
5:55 AM24.8 °F19.4 °F80 %29.88 in10.0 miWest (270°)4.6 mphClear
6:15 AM26.1 °F19.9 °F78 %29.88 in10.0 miWest (270°)4.6 mphClear
6:35 AM26.1 °F19.9 °F78 %29.87 in10.0 miWest (280°)5.8 mphClear
6:55 AM25.0 °F19.2 °F79 %29.88 in10.0 miWest (280°)3.5 mphClear
7:15 AM26.4 °F20.7 °F79 %29.88 in10.0 miWest (270°)6.9 mphClear
7:35 AM26.2 °F21.0 °F81 %29.89 in10.0 miWest (270°)9.2 mphClear
7:55 AM27.1 °F21.7 °F80 %29.88 in10.0 miWest (270°)6.9 mphClear
8:15 AM28.2 °F22.5 °F79 %29.88 in10.0 miWest (270°)5.8 mphClear
8:35 AM30.2 °F23.9 °F77 %29.88 in10.0 miWest (270°)6.9 mphClear
8:55 AM31.1 °F24.8 °F77 %29.88 in10.0 miWest (270°)6.9 mphClear
9:15 AM32.5 °F26.2 °F78 %29.88 in10.0 miWest (260°)5.8 mphClear
9:35 AM34.0 °F26.2 °F73 %29.88 in10.0 miWest (280°)4.6 mphClear
9:55 AM34.7 °F26.2 °F71 %29.88 in10.0 miWest (260°)5.8 mphClear
10:15 AM36.5 °F27.0 °F68 %29.88 in10.0 miWSW (250°)6.9 mphClear
10:35 AM38.1 °F26.6 °F63 %29.87 in10.0 miWSW (240°)3.5 mphClear
10:55 AM39.4 °F25.3 °F57 %29.87 in10.0 miWest (260°)5.8 mphClear
11:15 AM41.2 °F25.5 °F54 %29.87 in10.0 miWest (270°)4.6 mphClear
11:35 AM43.5 °F25.3 °F49 %29.87 in10.0 miWest (260°)9.2 mphClear
11:55 AM44.6 °F25.0 °F46 %29.86 in10.0 miWest (270°)8.1 mphClear
12:15 PM46.9 °F25.3 °F43 %29.85 in10.0 miWest (260°)9.2 mphClear
12:35 PM47.7 °F24.8 °F41 %29.84 in10.0 miWSW (240°)8.1 mphClear
12:55 PM48.7 °F24.3 °F38 %29.83 in10.0 miSW (220°)9.2 mphClear
1:15 PM50.4 °F22.6 °F34 %29.82 in10.0 miWSW (250°)9.2 mphClear
1:35 PM51.8 °F21.2 °F30 %29.81 in10.0 miWest (280°)11.5 mphClear
1:55 PM53.1 °F20.7 °F28 %29.80 in10.0 miWest (260°)11.5 mphClear
2:15 PM54.1 °F19.8 °F26 %29.79 in10.0 miWest (270°)11.5 mphClear
2:35 PM54.7 °F19.8 °F26 %29.79 in10.0 miWest (260°)15.0 mphClear
2:55 PM54.5 °F18.9 °F25 %29.78 in10.0 miWest (280°)15.0 mphClear
3:15 PM54.7 °F17.6 °F23 %29.78 in10.0 miWest (280°)13.8 mph20.7 mphClear
3:35 PM54.9 °F17.4 °F23 %29.77 in10.0 miWest (270°)13.8 mphClear
3:55 PM55.0 °F17.8 °F23 %29.77 in10.0 miWest (260°)11.5 mphClear
4:15 PM54.9 °F17.6 °F23 %29.76 in10.0 miWest (270°)15.0 mph18.4 mphClear
4:35 PM53.2 °F18.0 °F25 %29.76 in10.0 miWest (270°)11.5 mph19.6 mphClear
4:55 PM53.4 °F19.8 °F27 %29.77 in10.0 miWest (280°)10.4 mphClear
5:15 PM52.7 °F20.3 °F28 %29.77 in10.0 miWest (280°)11.5 mphClear
5:35 PM51.3 °F20.3 °F30 %29.77 in10.0 miWest (270°)9.2 mphClear
5:55 PM48.7 °F21.4 °F34 %29.77 in10.0 miWest (260°)8.1 mphClear
6:15 PM44.8 °F22.3 °F41 %29.77 in10.0 miWest (260°)8.1 mphClear
6:35 PM44.2 °F22.5 °F42 %29.78 in10.0 miWSW (250°)6.9 mphClear
6:55 PM44.1 °F23.5 °F44 %29.78 in10.0 miWSW (240°)6.9 mphScattered Clouds
7:15 PM43.9 °F23.0 °F44 %29.78 in10.0 miWSW (250°)8.1 mphScattered Clouds
7:35 PM42.6 °F23.0 °F46 %29.78 in10.0 miWest (260°)6.9 mphScattered Clouds
7:55 PM42.4 °F22.8 °F46 %29.79 in10.0 miWest (270°)8.1 mphClear
8:15 PM43.5 °F23.7 °F46 %29.79 in10.0 miWest (270°)10.4 mphClear
8:35 PM42.1 °F23.9 °F49 %29.79 in10.0 miWest (270°)9.2 mphClear
8:55 PM41.0 °F24.1 °F51 %29.79 in10.0 miWest (270°)8.1 mphClear
9:15 PM39.7 °F24.3 °F54 %29.79 in10.0 miWest (270°)9.2 mphClear
9:35 PM39.6 °F24.3 °F54 %29.80 in10.0 miWest (270°)10.4 mphClear
9:55 PM38.7 °F24.4 °F57 %29.80 in10.0 miWest (270°)9.2 mphClear
10:15 PM38.5 °F24.8 °F58 %29.80 in10.0 miWest (270°)9.2 mphClear
10:35 PM37.9 °F24.6 °F59 %29.80 in10.0 miWest (280°)6.9 mphClear
10:55 PM36.3 °F25.2 °F64 %29.80 in10.0 miWest (280°)6.9 mphClear
11:15 PM36.5 °F25.7 °F65 %29.81 in10.0 miWest (270°)6.9 mphClear
11:35 PM36.3 °F25.9 °F66 %29.83 in10.0 miWNW (290°)9.2 mphClear
11:55 PM36.0 °F26.2 °F68 %29.83 in10.0 miWNW (290°)6.9 mphScattered Clouds
Hourly data recorded from KBIE, located miles away from Hallam, Nebraska







STORIES FROM OUR PARTNERS